Probability
0 0 0 0 0 0 1 2 4 5 4 3 2 1 0 0 0 0 0 0 0 0 0 0 0 0 0 0 0 0 0 0 0 0 0 0 0 0 0 0 0 0 0
0 0 0 0 0 0 1 2 3 4 3 1 1 0 0 0 0 0 0 0 0 0 0 0 0 0 0 0 0 0 0 0 0 0 0 0 0 0 0 0 0 0 0
0 0 0 0 1 1 1 2 3 3 1 0 0 0 0 0 0 0 0 0 0 0 0 0 0 0 0 0 0 0 0 0 0 0 0 0 0 0 0 0 0 0 0
0 0 0 1 2 2 1 2 3 2 1 0 0 0 0 0 0 0 0 0 0 0 0 1 0 0 0 0 0 0 0 0 0 0 0 0 0 0 0 0 0 0 0
0 1 1 1 2 2 2 2 2 1 0 0 0 0 0 0 0 0 0 0 0 0 0 0 0 0 0 0 0 0 0 0 0 0 0 0 0 0 0 0 0 0 0
1 1 2 1 1 2 2 2 1 0 0 0 0 0 0 0 0 0 0 0 0 0 0 0 0 0 0 0 0 0 0 0 0 0 0 0 0 0 0 0 0 0 0
1 2 2 1 1 2 3 2 1 0 0 0 0 0 0 0 0 0 0 0 0 0 0 0 0 0 0 0 0 0 0 0 0 0 0 0 0 0 0 0 0 0 0
2 2 1 0 1 2 2 1 0 0 0 0 0 0 0 0 0 0 0 0 0 0 0 0 0 0 0 0 0 0 0 0 0 0 0 0 0 0 0 0 0 0 0
3 2 1 0 1 1 1 0 0 0 0 0 0 0 0 0 0 0 0 0 0 0 0 0 0 0 0 0 0 0 1 1 0 0 0 0 0 0 0 0 0 0 0
2 1 0 0 0 0 0 0 0 0 0 0 0 0 0 0 0 0 0 0 0 0 0 0 0 0 0 0 0 1 1 0 0 0 0 0 0 0 0 0 0 0 0
2 1 0 0 0 0 0 0 0 0 0 0 0 0 0 0 0 0 0 0 0 0 0 1 1 1 0 0 0 0 0 0 0 0 0 0 0 0 0 0 0 0 0
2 1 0 0 0 0 0 0 0 0 0 0 0 0 0 0 0 0 0 0 0 0 0 1 2 1 0 0 0 0 0 0 0 0 0 0 0 0 0 0 0 0 0
1 0 0 0 0 0 0 0 0 0 0 0 0 0 0 0 0 0 0 0 0 0 0 1 1 1 0 0 0 0 0 0 0 0 0 0 0 0 0 0 0 0 0
0 0 0 0 0 0 0 0 0 0 0 0 0 0 0 0 0 0 0 0 0 0 0 0 0 0 0 0 0 0 0 0 0 0 0 0 0 0 0 0 0 0 0
2 2 1 1 0 0 0 0 0 0 0 0 0 0 0 0 0 0 0 0 0 0 0 0 0 0 0 0 0 0 0 0 0 0 0 0 0 0 0 0 0 0 0
6 6 5 3 1 0 1 1 1 1 1 1 1 0 0 0 0 0 0 0 0 0 0 0 0 0 0 0 0 0 0 0 0 0 0 0 0 0 0 0 0 0 0
11 11 10 7 4 2 2 2 2 2 2 2 2 1 0 0 0 0 0 0 0 0 0 0 0 0 0 0 0 0 0 0 0 0 0 0 0 0 0 0 0 0 0
17 16 13 9 7 6 4 3 3 3 3 3 2 2 1 0 0 0 0 0 0 0 0 0 0 0 0 0 0 0 0 0 0 0 0 0 0 0 0 0 0 0 0
20 19 14 10 9 9 6 4 3 3 3 2 2 3 2 0 0 0 0 0 0 0 0 0 0 0 0 0 0 0 0 0 1 0 0 0 0 0 0 0 0 0 0
20 20 18 14 11 10 8 6 4 2 2 2 2 3 1 0 0 0 0 0 0 0 0 0 0 0 0 0 0 0 0 0 0 0 0 0 0 0 0 0 0 0 0
19 20 21 18 14 12 10 8 4 3 2 1 2 2 1 0 0 0 0 0 0 0 0 0 0 0 0 0 0 0 0 0 0 0 0 0 0 0 0 0 0 0 0
19 19 20 19 16 14 12 10 7 4 1 0 1 1 0 0 0 0 0 0 0 0 0 0 0 0 0 0 0 0 0 0 0 0 0 0 0 0 0 0 0 0 0
19 19 18 18 17 16 15 15 12 6 1 0 1 1 1 1 0 0 1 1 1 0 0 0 0 0 0 0 0 0 0 0 0 0 0 0 0 0 0 0 0 0 0
20 20 19 20 21 22 21 19 14 7 3 1 1 2 2 2 1 2 3 3 2 2 2 2 2 2 2 1 1 0 0 0 0 0 0 0 0 0 0 0 0 0 0
22 24 26 27 28 29 27 22 15 9 5 3 3 3 2 3 3 4 5 4 3 4 5 5 5 5 5 4 3 1 0 0 0 0 0 0 0 0 0 0 0 0 0
23 28 33 33 33 32 30 24 17 12 8 5 4 3 3 3 4 5 6 5 4 5 7 7 7 6 6 6 4 1 0 0 0 0 0 0 0 0 0 0 0 0 0
Wind_Speed
4 5 13 15 16 16 17 17 18 18 19 19 19 19 19 19 19 19 18 18 17 16 16 16 15 15 16 16 16 16 16 16 16 15 15 15 15 15 15 15 14 11 15
8 7 14 15 15 16 16 16 16 17 18 18 18 18 18 18 18 18 17 17 16 16 15 15 14 14 15 15 15 15 15 15 15 15 15 13 14 14 15 15 14 10 15
10 8 11 15 15 16 16 16 16 16 17 17 17 17 17 17 17 17 16 16 15 15 15 14 14 13 14 14 14 13 13 14 14 14 13 6 9 14 15 15 15 15 14
10 7 10 15 15 15 15 15 15 16 16 16 16 16 17 16 16 16 15 15 14 14 14 13 13 13 12 12 12 12 12 12 13 13 6 5 6 13 14 14 14 14 14
9 7 10 16 15 15 14 14 14 15 16 16 16 16 16 16 15 15 15 14 14 14 13 13 13 12 12 11 10 10 10 11 12 9 5 5 5 12 14 14 13 13 13
9 7 10 15 15 15 14 14 14 15 15 15 15 15 15 15 15 14 14 13 13 13 12 12 12 11 10 10 9 9 10 11 9 6 5 5 4 11 13 13 13 13 12
9 7 9 15 14 14 14 14 14 14 14 14 15 15 14 14 14 14 13 13 12 12 11 11 10 9 9 8 8 8 9 11 7 5 5 4 5 10 12 12 12 12 12
11 7 8 14 15 14 14 13 14 14 14 14 14 14 13 13 13 12 12 12 11 10 10 9 9 8 7 6 6 7 8 10 9 7 5 4 8 10 11 11 11 11 11
10 8 5 7 10 13 13 13 13 13 13 13 13 13 13 12 12 11 11 11 10 9 8 8 7 6 5 5 5 6 8 10 6 4 7 4 9 10 11 11 11 11 11
8 7 6 5 5 5 7 12 13 13 13 12 12 12 12 11 11 10 9 9 9 8 7 6 6 5 4 4 4 6 8 9 5 4 4 5 10 11 11 11 10 10 10
8 6 6 6 5 5 5 9 10 11 11 10 9 11 9 4 4 5 7 8 8 7 6 5 4 3 2 2 4 5 6 3 4 3 3 8 11 11 11 10 10 10 10
9 7 6 7 6 6 6 5 3 4 5 4 3 4 3 2 2 4 6 7 6 6 4 4 3 2 1 1 2 3 2 4 3 3 4 10 11 11 11 10 10 10 10
10 9 7 7 6 6 4 4 2 2 2 3 4 4 3 2 1 2 1 2 2 3 1 1 1 1 1 1 1 2 3 3 2 3 5 11 10 11 11 10 10 10 10
10 9 8 8 7 6 5 4 4 3 3 3 4 5 3 2 2 2 1 2 1 1 1 1 1 1 1 2 3 3 4 3 3 2 4 11 10 11 11 11 10 10 10
9 9 9 8 7 6 5 4 4 4 4 3 3 4 4 3 3 2 2 2 2 2 2 2 2 2 2 1 2 3 4 4 4 4 3 10 11 11 11 11 11 11 10
9 9 7 8 7 7 5 4 4 4 4 3 3 4 5 3 3 3 2 2 2 2 2 2 2 2 2 1 1 3 4 4 4 4 3 6 11 11 11 11 11 11 11
10 9 8 8 7 7 6 5 4 4 4 4 3 4 4 4 4 3 2 2 2 2 2 1 1 1 1 1 1 2 3 4 5 5 5 3 5 9 11 11 11 11 11
10 9 9 8 7 6 5 4 3 3 4 3 3 3 3 3 3 2 2 2 1 1 1 2 1 1 1 1 1 1 2 3 4 5 4 4 4 4 8 11 11 11 11
11 10 8 7 8 6 5 4 3 3 4 3 3 3 3 3 3 2 2 1 1 1 1 2 2 2 2 1 1 1 1 2 3 5 5 5 5 4 4 8 11 11 11
10 10 9 8 7 6 4 3 2 2 2 3 3 4 4 3 4 3 2 2 1 1 1 1 2 1 2 2 1 0 1 2 2 3 5 4 4 6 5 5 5 7 11
9 9 9 9 7 6 4 3 3 2 2 2 3 5 5 4 4 3 2 2 2 1 2 2 2 1 1 1 1 1 2 1 2 3 3 3 5 5 5 5 4 4 4
11 10 10 10 9 7 5 4 3 3 2 3 3 3 4 4 4 4 3 2 2 1 1 2 2 1 1 1 2 1 2 3 2 1 2 3 4 4 5 7 5 5 4
10 11 11 10 9 8 6 3 2 2 1 1 2 2 3 4 4 3 4 3 3 2 2 3 2 3 2 1 2 3 2 2 2 2 2 2 3 3 4 4 6 6 6
12 11 9 10 9 8 8 6 6 5 4 4 3 3 3 4 5 5 4 4 3 3 3 3 3 3 3 2 1 1 2 3 2 2 3 2 3 3 4 4 5 6 6
11 10 9 9 8 8 8 8 7 5 4 3 3 3 3 3 4 5 5 4 4 3 4 3 3 3 3 3 2 1 1 1 2 2 2 3 2 2 3 4 4 4 5
10 9 9 9 9 8 8 8 8 7 6 5 4 4 3 2 3 4 4 4 4 4 4 4 3 3 3 3 2 2 2 2 2 3 3 3 2 3 2 2 3 4 4
Wind_Direction
119 119 113 109 105 102 100 97 96 95 96 97 99 101 104 107 109 110 110 111 111 111 110 109 109 110 111 112 113 115 115 116 115 115 115 117 118 118 118 115 113 110 112
133 124 115 112 108 105 103 101 100 99 99 100 100 103 106 108 109 110 111 112 112 112 111 110 110 111 111 112 114 116 118 117 115 114 112 113 115 118 117 117 114 116 115
125 120 115 114 111 109 107 106 105 104 104 103 103 105 108 109 110 110 111 112 113 113 112 111 110 110 111 113 115 117 118 115 114 113 109 102 109 115 118 117 116 115 115
125 121 120 116 113 112 111 109 108 107 107 106 106 106 109 108 110 111 112 113 114 113 112 112 111 110 110 112 114 117 118 119 117 112 101 97 107 116 117 117 118 118 117
119 118 123 119 117 115 114 112 112 111 110 110 110 110 110 110 110 110 113 114 114 113 112 111 110 110 111 111 113 117 120 121 118 107 96 91 100 119 119 120 120 119 119
118 118 124 120 118 117 117 117 117 115 114 113 113 113 113 113 112 113 113 114 114 115 115 114 112 112 114 113 113 116 119 120 114 108 105 105 108 122 123 124 122 120 120
121 118 123 122 121 120 120 121 121 119 118 117 115 114 113 113 113 114 114 116 116 117 118 117 115 113 113 111 110 114 117 121 117 119 117 114 121 124 125 126 126 124 123
126 121 125 127 125 124 123 123 123 123 122 119 119 118 117 116 117 118 118 119 120 120 121 121 120 116 112 110 112 117 118 123 124 128 123 124 133 130 129 127 127 127 126
125 123 118 123 127 128 127 127 127 127 124 122 124 124 123 122 121 121 122 123 124 125 126 128 127 123 116 112 116 124 124 126 125 131 137 135 140 138 135 132 132 132 131
127 129 125 120 118 120 124 131 132 130 128 129 130 130 131 130 129 127 125 128 131 134 136 139 137 134 131 122 118 124 122 124 130 133 131 148 148 146 143 140 139 139 138
137 140 139 136 132 130 135 137 135 134 136 135 136 138 131 120 123 130 139 140 140 144 150 154 157 156 142 124 126 128 115 116 130 128 141 154 156 154 149 147 147 145 145
154 159 156 152 152 153 149 131 133 137 136 135 137 136 130 139 154 153 152 152 154 159 166 178 184 180 143 117 130 127 117 127 133 141 158 159 161 159 157 156 155 153 152
164 166 165 165 164 162 142 146 148 140 146 153 160 160 154 149 153 142 139 157 171 181 192 221 210 215 187 161 152 145 142 134 148 157 165 166 166 164 163 163 163 161 160
160 166 167 168 167 163 152 159 159 156 161 169 174 170 158 155 159 162 172 189 199 203 205 221 216 216 212 198 173 162 153 157 151 152 174 172 172 172 170 170 170 169 168
156 160 162 160 160 155 152 164 162 167 169 173 167 167 162 162 169 176 186 194 206 201 197 201 207 213 218 190 164 156 160 159 157 164 173 176 177 178 177 177 177 177 175
160 160 156 150 152 149 153 158 159 167 167 163 161 165 166 162 164 170 174 184 203 203 200 195 193 198 196 164 161 159 159 157 164 167 172 182 185 185 186 185 184 184 184
163 158 155 152 149 147 150 157 155 162 158 161 172 170 164 162 164 163 158 179 203 193 191 186 178 154 160 158 175 170 162 162 168 173 178 182 191 195 193 193 192 192 194
162 160 164 160 154 152 152 151 150 155 157 165 169 160 157 158 160 152 158 188 199 175 162 164 165 148 153 158 175 190 172 168 177 177 183 191 190 198 202 200 199 200 201
166 164 166 158 160 160 158 154 154 154 160 160 157 158 163 171 175 159 177 199 184 158 162 181 171 163 167 180 193 191 194 184 180 181 189 198 196 197 198 206 205 206 208
168 166 166 162 166 160 150 141 132 135 156 156 160 171 171 178 178 169 183 197 178 147 148 146 155 153 166 176 201 198 222 203 189 187 193 193 199 202 199 200 202 211 212
169 169 169 167 172 163 155 156 156 173 176 169 179 182 181 184 181 176 183 181 171 167 183 173 153 150 181 137 87 6 332 278 216 202 196 189 202 205 198 199 199 202 212
177 176 174 174 175 175 174 168 165 165 180 182 184 188 193 187 183 184 182 182 184 178 183 185 162 146 183 137 130 102 352 339 319 236 203 201 204 201 205 207 202 204 208
183 183 184 181 177 179 173 155 147 120 99 150 190 200 208 190 185 189 185 178 185 184 198 205 183 169 185 210 155 149 157 227 293 307 251 222 213 209 215 207 205 207 209
190 184 185 183 178 179 173 172 171 178 189 201 193 197 209 199 189 186 185 187 189 189 201 208 195 181 170 193 210 193 183 170 169 293 311 274 234 224 219 214 212 209 207
189 181 182 180 180 182 180 179 181 189 195 189 182 190 206 213 204 194 190 186 190 193 200 204 195 184 175 182 191 193 203 193 167 170 265 296 299 256 226 216 212 210 211
185 179 178 179 187 188 185 183 186 190 188 181 189 192 204 222 220 211 199 192 199 199 202 206 201 192 192 193 194 189 180 182 195 185 218 246 264 274 253 227 215 213 210